Hourly Data Report for October 11, 2016

All times are specified in Local Standard Time (LST). Add 1 hour to adjust for Daylight Saving Time where and when it is observed.

QIKIQTARJUAQ A
NUNAVUT

67°32'48.000" N
64°01'54.000" W
5.50 m
2400577
YVM

Download Data

Hourly Data (October 2016)
Hourly Data Report for October 11, 2016
Temp Definition
°C
Dew Point Temp Definition
°C
Rel Hum Definition
%
Wind Dir Definition
10's deg

Wind Spd Definition
km/h
Visibility Definition
km
Stn Press Definition
kPa
Hmdx Definition


Wind Chill Definition


Weather Definition


TIME
00:00 Legend Double Dagger -5.1 -9.5 72 LegendMM 4 16.1 101.35   -7 LegendNANA
01:00 Legend Double Dagger -3.2 -7.6 72 23 5 16.1 101.39   -5 LegendNANA
02:00 Legend Double Dagger -4.1 -7.8 75 14 8 16.1 101.41   -8 LegendNANA
03:00 Legend Double Dagger -5.6 -7.9 84 14 9 16.1 101.42   -10 LegendNANA
04:00 Legend Double Dagger -4.6 -6.9 84 17 8 16.1 101.43   -8 LegendNANA
05:00 Legend Double Dagger -5.1 -7.2 86 16 8 16.1 101.41   -9 LegendNANA
06:00 Legend Double Dagger -6.9 -8.3 90 LegendMM 4 16.1 101.40   -9 LegendNANA
07:00 Legend Double Dagger -5.5 -8.0 83 20 9 16.1 101.40   -10 LegendNANA
08:00 Legend Double Dagger -3.6 -8.3 70 13 5 16.1 101.38   -6 LegendNANA
09:00 Legend Double Dagger -3.3 -8.2 69 18 15 16.1 101.36   -8 LegendNANA
10:00 Legend Double Dagger -2.0 -7.8 65 22 18 16.1 101.32   -7 LegendNANA
11:00 Legend Double Dagger -1.9 -7.2 67 19 18 16.1 101.30   -7 LegendNANA
12:00 Legend Double Dagger -2.6 -8.7 63 15 9 16.1 101.28   -6 LegendNANA
13:00 Legend Double Dagger -2.6 -8.5 64 20 13 16.1 101.27   -7 LegendNANA
14:00 Legend Double Dagger -2.3 -8.7 62 20 21 16.1 101.25   -8 LegendNANA
15:00 Legend Double Dagger -3.9 -9.8 64 20 17 16.1 101.24   -10 LegendNANA
16:00 Legend Double Dagger -5.6 -10.2 70 13 5 16.1 101.24   -8 LegendNANA
17:00 Legend Double Dagger -6.0 -10.1 73 14 9 16.1 101.25   -10 LegendNANA
18:00 Legend Double Dagger -5.3 -8.3 80 LegendMM 4 16.1 101.24   -7 LegendNANA
19:00 Legend Double Dagger -6.4 -9.6 78 18 9 16.1 101.21   -11 LegendNANA
20:00 Legend Double Dagger -5.6 -9.6 74 14 5 16.1 101.18   -8 LegendNANA
21:00 Legend Double Dagger -5.6 -9.4 75 17 4 16.1 101.16   -7 LegendNANA
22:00 Legend Double Dagger -6.7 -9.7 79 16 4 16.1 101.13   -9 LegendNANA
23:00 Legend Double Dagger -7.2 -11.4 72 16 4 16.1 101.13   -9 LegendNANA

Notes on Data Quality.

Legend

  • E = Estimated
  • M = Missing
  • NA = Not Available
  • ‡ = Partner data that is not subject to review by the National Climate Archives
Date modified: